Franklin, PA

12:58 PM EST on December 11, 2017 (GMT -0500)
Venango Regional

Weather History for KFKL - May, 2014

Change the Weather History Date:

Thursday, May 15, 2014

  Actual Average Record
Temperature  
Mean Temperature 58 °F -  
Max Temperature 66 °F 70 °F 89 °F (1962)
Min Temperature 50 °F 44 °F 30 °F (1936)
Degree Days  
Heating Degree Days 6    
Growing Degree Days 8 (Base 50)    
Moisture  
Dew Point 55 °F    
Average Humidity 82    
Maximum Humidity 94    
Minimum Humidity 68    
Precipitation  
Precipitation 1.16 in - - ()
Sea Level Pressure  
Sea Level Pressure 29.95 in    
Wind  
Wind Speed 13 mph (SSE)    
Max Wind Speed 23 mph    
Max Gust Speed 33 mph    
Visibility 9 miles    
Events      
Averages and records for this station are not official NWS values.
T = Trace of Precipitation, MM = Missing Value Source: NWS Daily Summary

Daily Weather History Graph

Daily Weather History Graph

Search for Another Location

Airport or City:

Trip Planner

Search our weather history database for the weather conditions in past years. The results will help you decide how hot, cold, wet, or windy it might be!

Date:

Astronomy

May. 15, 2014 Rise Set
Actual Time 6:00 AM EDT 8:31 PM EDT
Civil Twilight 5:29 AM EDT 9:03 PM EDT
Nautical Twilight 4:49 AM EDT 9:42 PM EDT
Astronomical Twilight 4:06 AM EDT 10:26 PM EDT
Moon 9:37 PM EDT (5/15) 6:46 AM EDT (5/15)
Length of Visible Light 15h 33m
Length of Day
14h 30m
Full, 99% of the Moon is Illuminated
May 15
Full
May 21
Last Quarter
May 28
New
Jun 5
First Quarter
Jun 13
Full

Hourly Weather History & Observations

Time (EDT) Temp. Dew Point Humidity Pressure Visibility Wind Dir Wind Speed Gust Speed Precip Events Conditions
12:15 AM 64.4 °F 57.2 °F 77% 30.04 in 10.0 mi SE 10.4 mph 19.6 mph N/A   Mostly Cloudy
12:35 AM 64.4 °F 57.2 °F 77% 30.04 in 10.0 mi ESE 8.1 mph - N/A   Overcast
12:55 AM 64.4 °F 57.2 °F 77% 30.04 in 10.0 mi ESE 12.7 mph - N/A   Overcast
1:15 AM 62.6 °F 57.2 °F 82% 30.02 in 10.0 mi ESE 10.4 mph - N/A   Mostly Cloudy
1:35 AM 62.6 °F 57.2 °F 82% 30.01 in 10.0 mi ESE 16.1 mph - N/A   Scattered Clouds
1:55 AM 62.6 °F 57.2 °F 82% 30.01 in 10.0 mi SE 12.7 mph 18.4 mph N/A   Partly Cloudy
2:15 AM 62.6 °F 57.2 °F 82% 30.00 in 10.0 mi SE 13.8 mph 19.6 mph N/A   Clear
2:35 AM 62.6 °F 57.2 °F 82% 29.99 in 10.0 mi SE 13.8 mph 20.7 mph N/A   Clear
2:55 AM 62.6 °F 57.2 °F 82% 29.98 in 10.0 mi SE 15.0 mph 21.9 mph N/A   Clear
3:15 AM 62.6 °F 57.2 °F 82% 29.97 in 10.0 mi SE 17.3 mph 24.2 mph N/A   Clear
3:35 AM 62.6 °F 57.2 °F 82% 29.97 in 10.0 mi SE 15.0 mph 26.5 mph N/A   Partly Cloudy
3:55 AM 62.6 °F 57.2 °F 82% 29.96 in 10.0 mi SE 16.1 mph 21.9 mph N/A   Clear
4:15 AM 62.6 °F 57.2 °F 82% 29.96 in 10.0 mi SE 15.0 mph 20.7 mph N/A   Clear
4:35 AM 62.6 °F 57.2 °F 82% 29.96 in 10.0 mi SE 16.1 mph 20.7 mph N/A   Clear
4:55 AM 62.6 °F 57.2 °F 82% 29.95 in 10.0 mi SE 13.8 mph 21.9 mph N/A   Clear
5:15 AM 62.6 °F 57.2 °F 82% 29.95 in 10.0 mi SE 13.8 mph 21.9 mph N/A   Clear
5:35 AM 62.6 °F 57.2 °F 82% 29.95 in 10.0 mi SE 15.0 mph 24.2 mph N/A   Clear
5:55 AM 64.4 °F 57.2 °F 77% 29.94 in 10.0 mi SE 15.0 mph 20.7 mph N/A   Clear
6:15 AM 64.4 °F 57.2 °F 77% 29.94 in 10.0 mi SE 16.1 mph 21.9 mph N/A   Clear
6:35 AM 64.4 °F 57.2 °F 77% 29.94 in 10.0 mi SE 15.0 mph 21.9 mph N/A   Clear
6:55 AM 64.4 °F 57.2 °F 77% 29.94 in 10.0 mi SE 17.3 mph 23.0 mph N/A   Partly Cloudy
7:15 AM 64.4 °F 57.2 °F 77% 29.94 in 10.0 mi SE 15.0 mph 23.0 mph N/A   Partly Cloudy
7:35 AM 64.4 °F 57.2 °F 77% 29.94 in 10.0 mi SE 17.3 mph 24.2 mph N/A   Partly Cloudy
7:55 AM 64.4 °F 57.2 °F 77% 29.93 in 10.0 mi SE 17.3 mph 21.9 mph N/A   Clear
8:15 AM 64.4 °F 57.2 °F 77% 29.93 in 10.0 mi SE 12.7 mph 23.0 mph N/A   Clear
8:35 AM 66.2 °F 55.4 °F 68% 29.93 in 10.0 mi SE 15.0 mph 27.6 mph N/A   Scattered Clouds
8:55 AM 64.4 °F 57.2 °F 77% 29.94 in 10.0 mi SSE 19.6 mph 31.1 mph N/A   Mostly Cloudy
9:15 AM 62.6 °F 57.2 °F 82% 29.93 in 10.0 mi SSE 15.0 mph - 0.01 in   Mostly Cloudy
9:35 AM 64.4 °F 57.2 °F 77% 29.93 in 10.0 mi SE 13.8 mph 19.6 mph 0.01 in   Mostly Cloudy
9:55 AM 64.4 °F 57.2 °F 77% 29.92 in 10.0 mi SE 19.6 mph 24.2 mph 0.01 in   Scattered Clouds
10:15 AM 64.4 °F 57.2 °F 77% 29.92 in 10.0 mi SE 13.8 mph 23.0 mph N/A   Mostly Cloudy
10:35 AM 62.6 °F 57.2 °F 82% 29.92 in 7.0 mi SSE 10.4 mph 21.9 mph 0.02 in   Mostly Cloudy
10:55 AM 62.6 °F 57.2 °F 82% 29.92 in 10.0 mi SSE 10.4 mph - 0.02 in   Overcast
11:15 AM 64.4 °F 57.2 °F 77% 29.92 in 10.0 mi SSE 13.8 mph - N/A   Overcast
11:35 AM 64.4 °F 57.2 °F 77% 29.92 in 10.0 mi SSE 13.8 mph 17.3 mph N/A   Overcast
11:55 AM 64.4 °F 57.2 °F 77% 29.92 in 10.0 mi SSE 13.8 mph - 0.01 in   Overcast
12:15 PM 64.4 °F 57.2 °F 77% 29.92 in 10.0 mi South 13.8 mph 20.7 mph N/A   Overcast
12:35 PM 64.4 °F 59.0 °F 83% 29.92 in 10.0 mi South 12.7 mph - 0.01 in   Mostly Cloudy
12:55 PM 64.4 °F 59.0 °F 83% 29.91 in 10.0 mi South 11.5 mph - 0.03 in   Overcast
1:15 PM 64.4 °F 59.0 °F 83% 29.90 in 10.0 mi SSE 12.7 mph 19.6 mph 0.01 in   Overcast
1:35 PM 64.4 °F 59.0 °F 83% 29.90 in 10.0 mi SSE 16.1 mph 21.9 mph 0.03 in   Overcast
1:55 PM 64.4 °F 59.0 °F 83% 29.88 in 10.0 mi SE 13.8 mph 25.3 mph 0.03 in   Mostly Cloudy
2:15 PM 64.4 °F 59.0 °F 83% 29.90 in 10.0 mi SSE 23.0 mph 33.4 mph N/A   Overcast
3:15 PM 62.6 °F 59.0 °F 88% 29.90 in 10.0 mi SSE 17.3 mph 23.0 mph 0.02 in   Overcast
3:35 PM 62.6 °F 60.8 °F 94% 29.89 in 9.0 mi SSE 13.8 mph 24.2 mph 0.05 in   Overcast
3:55 PM 62.6 °F 59.0 °F 88% 29.89 in 8.0 mi SSE 10.4 mph 20.7 mph 0.09 in   Overcast
4:15 PM 62.6 °F 59.0 °F 88% 29.89 in 10.0 mi SSE 13.8 mph 18.4 mph 0.03 in   Overcast
4:35 PM 62.6 °F 60.8 °F 94% 29.89 in 9.0 mi South 16.1 mph 20.7 mph 0.06 in   Overcast
4:55 PM 60.8 °F 57.2 °F 88% 29.91 in 6.0 mi SSW 11.5 mph 21.9 mph 0.27 in   Overcast
5:15 PM 60.8 °F 57.2 °F 88% 29.91 in 5.0 mi WSW 9.2 mph - 0.04 in   Overcast
5:35 PM 59.0 °F 55.4 °F 88% 29.92 in 4.0 mi West 5.8 mph - 0.11 in   Overcast
5:55 PM 59.0 °F 55.4 °F 88% 29.92 in 6.0 mi SSW 12.7 mph 20.7 mph 0.19 in   Overcast
6:15 PM 55.4 °F 51.8 °F 88% 29.93 in 3.0 mi WSW 20.7 mph 25.3 mph 0.04 in   Overcast
6:35 PM 53.6 °F 48.2 °F 82% 29.93 in 9.0 mi WSW 9.2 mph - 0.06 in   Overcast
6:55 PM 53.6 °F 48.2 °F 82% 29.93 in 7.0 mi SW 8.1 mph - 0.07 in   Overcast
7:15 PM 53.6 °F 48.2 °F 82% 29.94 in 4.0 mi WSW 9.2 mph 17.3 mph 0.02 in   Overcast
7:35 PM 53.6 °F 48.2 °F 82% 29.94 in 8.0 mi WSW 5.8 mph - 0.06 in   Overcast
7:55 PM 53.6 °F 48.2 °F 82% 29.94 in 10.0 mi West 3.5 mph - 0.08 in   Overcast
8:15 PM 53.6 °F 48.2 °F 82% 29.94 in 4.0 mi SSW 3.5 mph - 0.03 in   Overcast
8:35 PM 53.6 °F 48.2 °F 82% 29.96 in 5.0 mi SW 5.8 mph - 0.06 in   Overcast
8:55 PM 53.6 °F 50.0 °F 88% 29.95 in 10.0 mi SW 8.1 mph - 0.11 in   Mostly Cloudy
9:15 PM 53.6 °F 50.0 °F 88% 29.96 in 9.0 mi WSW 8.1 mph - 0.07 in   Mostly Cloudy
9:35 PM 53.6 °F 48.2 °F 82% 29.96 in 9.0 mi West 12.7 mph - 0.13 in   Overcast
9:55 PM 51.8 °F 48.2 °F 88% 29.97 in 10.0 mi West 11.5 mph - 0.15 in   Overcast
10:15 PM 51.8 °F 48.2 °F 88% 29.98 in 10.0 mi WSW 8.1 mph - 0.02 in   Mostly Cloudy
10:35 PM 51.8 °F 48.2 °F 88% 29.99 in 10.0 mi SW 4.6 mph - 0.04 in   Mostly Cloudy
10:55 PM 51.8 °F 48.2 °F 88% 29.99 in 10.0 mi SW 6.9 mph - 0.05 in   Overcast
11:15 PM 51.8 °F 46.4 °F 82% 29.98 in 5.0 mi SSW 4.6 mph - 0.02 in   Overcast
11:35 PM 51.8 °F 46.4 °F 82% 29.99 in 10.0 mi WSW 8.1 mph 16.1 mph 0.04 in   Overcast
11:55 PM 50.0 °F 44.6 °F 82% 29.99 in 6.0 mi West 10.4 mph - 0.05 in   Overcast